Gefundene Sportergebnisse Reiter: Hampp, Eva Maria

hoeveler tierfutter Verkauf von Dressurpferden aus Hannoveraner Zucht ZG Koehler
Benutzerdefinierte Suche


Teilnahme von

Hampp, Eva Maria


an Turnieren
 


 www.reitturnier-news.de

Gesucht wurde in reitturnier-news.de nach:


Reiter Pferde Ort
28.01 23:09:57 Rüter, Indra28.01 23:09:06 D Argon28.01 23:07:39 73765
28.01 23:09:24 Halama, Judith Ruth28.01 23:08:35 Baldinis-Girl28.01 23:06:16 Calgary, Spruce
28.01 23:09:17 Beckfeld Maren28.01 23:08:22 transpofix rihanna28.01 23:06:00 wehdem oppendorf
28.01 23:09:01 Hugers, Laura28.01 23:08:18 Rubeus28.01 23:05:44 reitertag wahlwies
28.01 23:08:52 van Erp Riccarda28.01 23:07:38 pin upp28.01 23:04:53 Großostheim/Ufr.
28.01 23:07:58 Gürgens, Jule28.01 23:06:38 rappo fleur28.01 23:04:47 Gorgast
28.01 23:07:57 Piefenbrink, Jörg28.01 23:06:27 Geronimo 66028.01 23:03:39 köln-hohenhaus
28.01 23:07:30 Barnekow, Hannah28.01 23:05:53 FST Schoensgreen Kaiserlicht28.01 23:02:44 steckby fahrturnier
28.01 23:07:18 bextermöller, janne28.01 23:05:49 Fleury 1728.01 23:02:14 Ennigerloh-Neubeckum
28.01 23:07:16 Eberwein28.01 23:05:29 confide28.01 23:01:51 Langstedt
28.01 23:07:12 Schulze-Havixbeck, Beate28.01 23:05:22 gustino 328.01 23:01:09 aue wingeshausen
28.01 23:07:01 antje walzel28.01 23:05:13 Ferrara la Bella28.01 23:00:27 Papenburg
28.01 23:06:54 Kawitz, Sarah28.01 23:04:37 D Artagnan 14428.01 23:00:06 Heddinghausen
28.01 23:06:37 Willow Heise, Annina28.01 23:04:27 Energy I m too28.01 22:59:53 beedenbostel
28.01 23:06:27 Bettina Krau28.01 23:04:24 Ramina28.01 22:59:50 deren
28.01 23:06:25 Marotzke, Katja28.01 23:04:13 Lezatinus28.01 22:59:20 Kreiensen
28.01 23:06:02 Nolte, Anna28.01 23:04:08 Camaro 9428.01 22:58:34 Schneppenheim F
28.01 23:05:55 Pelikowsky, Axel28.01 23:04:02 Catania 9428.01 22:56:00 SCHWANHEIM
28.01 23:05:48 Ludovica MANZOLI (ITA)28.01 23:03:39 Sugar Boy 828.01 22:51:40 Velen
28.01 23:05:38 Gehrold, Kristina28.01 23:03:38 Sugar Boy 1428.01 22:48:38 Norderney 2010
28.01 23:05:33 Thieme, Sandy Jane28.01 23:03:26 Cascais28.01 22:47:43 september 2014
28.01 23:05:27 Mathieu MONTAGNE (FRA)28.01 23:03:22 Hesselteichs Gentleman28.01 22:45:06 rv kleinenborstel
28.01 23:05:26 Ibrar Hussain Mohd FEROZ28.01 23:03:06 Flying Pleasure28.01 22:44:54 Schönkirchen Landgraben
28.01 23:05:20 regina kneuer28.01 23:02:37 Adenauer M28.01 22:44:30 Reitverein sieversen
28.01 23:05:15 Iglhaut,Reinhard28.01 23:02:29 Wicona28.01 22:42:58 PSV Sonnenhof
28.01 23:05:04 cohrs,28.01 23:02:21 Rodomo28.01 22:42:40 Fuchshof HAsloh
28.01 23:05:00 hoffmann, jiline28.01 23:01:55 Ben Liebrand28.01 22:42:36 Simbach am
28.01 23:04:53 Lehner, Carola28.01 23:01:45 Kenaf Boy28.01 22:42:29 rfv springe
28.01 23:04:44 Luy, Selina28.01 23:01:39 pharlap 1728.01 22:41:48 Turnier Holtensen
28.01 23:04:42 Melanie Wendel28.01 23:01:17 Sir Rabenstein28.01 22:41:40 rheinzabern 2012
28.01 23:04:35 Döhler, Gunther28.01 23:01:15 Montecor 228.01 22:41:09 albig
28.01 23:04:25 simone naumann28.01 23:00:41 Calvin Klein AMC28.01 22:39:40 sulingen
28.01 23:04:16 niklas möller28.01 23:00:39 Grignan 228.01 22:39:07 Schwedt
28.01 23:04:15 Pirek, Kim28.01 23:00:08 Dart danjon28.01 22:38:25 Biarritz
28.01 23:04:09 Lamek, Anke28.01 22:59:46 Don Camillo 16628.01 22:38:20 barockturnier marpingen
28.01 23:03:58 Joshua WILLIAMS (USA)28.01 22:59:44 Brennabor ashara28.01 22:38:17 Schwerin-Kongresshalle
28.01 23:03:50 Betz, Sabine28.01 22:59:11 Red Hot Chili Pepper28.01 22:37:30 wollmar-münchhausen
28.01 23:03:47 Reitturnier Holzendorf28.01 22:58:54 Luis 7128.01 22:37:26 Sprakensehl /
28.01 23:03:47 Bartosz HUMPICH (POL)28.01 22:58:43 Bailando 628.01 22:37:16 Viersen-Dülken
28.01 23:03:44 Elisa Brun28.01 22:58:19 com air28.01 22:37:09 selsingen tunier
28.01 23:03:27 Miotke, Ellen28.01 22:57:53 Gavin28.01 22:37:00 Reitturnier Brake
28.01 23:03:03 josch l28.01 22:57:28 Kowalski 528.01 22:36:53 Enger-Westerenger
28.01 23:02:58 Austermeier, Ramona28.01 22:57:24 Callenberg s Just in28.01 22:35:46 burgstädt
28.01 23:02:55 Giordano, Jasmin28.01 22:57:12 Fighting Gianna28.01 22:35:43 seehof waging
28.01 23:02:43 kiara janne und rike28.01 22:57:09 satellite28.01 22:34:30 Reitturnier leck
28.01 23:02:17 Meier, Marie-Beatrice28.01 22:56:54 Signorina28.01 22:34:14 in Z
28.01 23:02:14 Struckholt, Sonja28.01 22:56:44 Bella Rose 228.01 22:33:06 westernturnier löhne
28.01 23:01:34 Mügge, Birte28.01 22:56:15 Lyon 4528.01 22:33:00 Wm
28.01 23:01:28 Foerg, Daniela28.01 22:55:31 ciliano van de28.01 22:32:52 Ibbenbüren/dörenthe
28.01 23:01:07 Glenewinkel, Anna Lena28.01 22:54:07 samaranch28.01 22:32:50 Nordstetten- Horb
28.01 23:01:02 Hillenberg, Sarah28.01 22:52:48 Boncheron28.01 22:32:32 Thaden
28.01 23:00:49 Giese, Norbert28.01 22:52:34 Latina 14628.01 22:32:20 schönemoor
28.01 23:00:43 Wennemar, Birgit28.01 22:52:17 dotatus28.01 22:31:44 Assen
28.01 23:00:43 Klein,Katja-Sophia28.01 22:51:47 Gucci Boy 228.01 22:31:32 Reitertag Lindenberg
28.01 23:00:37 Stange, Sarah-Jane28.01 22:51:47 avelina petit28.01 22:31:22 reitturnier-bergisdorf
28.01 23:00:28 Tanja Lorenz28.01 22:50:35 benny34628.01 22:24:37 Framersheim 2007
28.01 23:00:26 Türpe, Nicole28.01 22:50:20 Touch of white28.01 22:24:09 Neuenkirchen-Melle
28.01 23:00:20 Ortenberger, Myriam28.01 22:49:39 Trixi Tessina28.01 22:23:35 Damme
28.01 23:00:12 Fasse, Mara28.01 22:49:04 Wellness 3028.01 22:23:17 Springe
28.01 23:00:10 Weinmann, Klaus28.01 22:48:09 Apanatschi 6928.01 22:20:43 würzburg
28.01 23:00:00 CAMILLA SPERANZA (ITA)28.01 22:47:52 Mac Duncan28.01 22:19:52 reitturnier dortmund-Brechten
28.01 22:59:54 Julian Stahl28.01 22:47:44 Reamix28.01 22:19:38 REITTURNIER HEMSBACH
28.01 22:59:51 ulf knüppel28.01 22:47:35 Apuilegia28.01 22:19:35 Mettmann -
28.01 22:59:43 Margaret Bennett - Lees28.01 22:47:11 nikita37728.01 22:17:57 turnier oberscheld
28.01 22:59:39 Brundiers,28.01 22:46:57 louis mont blanc s28.01 22:17:48 düsseldorf-uhlenhof
28.01 22:59:30 Mausberg, Nan28.01 22:46:46 bartlguts28.01 22:17:17 elmlohe 2012
28.01 22:59:21 germer, Annelore28.01 22:46:07 Soraya 24328.01 22:16:28 Ebsdorf Hessen
28.01 22:59:16 Hemschenherm, Lisa-Marie28.01 22:46:00 Siebenstein 1028.01 22:16:11 Nussbach
28.01 22:59:14 Redzig, Lara28.01 22:45:53 First class 6428.01 22:14:40 Worms-Pfeddersheim 5
28.01 22:59:05 Lisa Dörr28.01 22:45:24 Wolke Sieben W28.01 22:14:30 Lübeck Rittbrook
28.01 22:59:00 Dieterich,Kathrin28.01 22:45:18 lapinj28.01 22:12:32 bon home
28.01 22:58:49 Vierlb28.01 22:45:04 Quincy Jones z28.01 22:12:13 RC Stotel
28.01 22:58:32 Grotthuss,28.01 22:44:36 Maddoc 228.01 22:08:25 Calbe/Saale
28.01 22:58:29 Lindemann naascha28.01 22:43:52 Ready to fly now28.01 22:07:43 insel poel
28.01 22:58:24 billy musse28.01 22:42:53 Adoramus28.01 22:06:30 großhausen-kühbach
28.01 22:58:18 Ehrler,28.01 22:42:21 Carlson 7528.01 22:06:10 Reitturnier Heuchling-Lauf
28.01 22:58:12 Koberg28.01 22:41:35 picasso 59128.01 22:05:58 reitturnier berkersheim
28.01 22:58:07 Seidl Peter28.01 22:41:08 Concorde 5828.01 22:05:00 geledetag riesenbeck
28.01 22:58:01 wenz,holger28.01 22:41:05 Paul 6528.01 22:04:53 holtriem
28.01 22:57:58 Tammy WHITE (NZL)28.01 22:40:38 shangrila28.01 22:03:35 Ratingen-H
28.01 22:57:55 Busch Christian28.01 22:40:30 donna felicitas28.01 22:03:12 Kreuzau -
28.01 22:57:47 Schulz, Lara28.01 22:40:28 Ashley s Basti28.01 22:02:44 ritterhude tempo
28.01 22:57:42 hofmann ronni28.01 22:40:19 don benito 3428.01 22:02:10 westerholt (Ostfriesland)
28.01 22:57:36 Freit28.01 22:40:17 geraldine28.01 22:00:48 sprenge
28.01 22:57:30 Oberl28.01 22:39:22 Daytime28.01 22:00:22 Sauerlach/Obb.
28.01 22:57:25 kira mahler28.01 22:39:16 Lumos 628.01 22:00:19 ramelsbach
28.01 22:57:22 Christina Goldberg28.01 22:38:57 Marwitz 528.01 21:59:49 gut aichet
28.01 22:57:17 Jessica K28.01 22:38:49 kleiner kronprinz28.01 21:59:38 Langenstriegis
28.01 22:57:14 Schmid Maximilian28.01 22:38:47 Nock out 228.01 21:59:32 Ottersheim bei
28.01 22:57:05 Haberhauer28.01 22:38:30 Ubangi 228.01 21:59:22 Turnier Albersloh
28.01 22:56:57 Nicola WILSON (GBR)28.01 22:38:24 leoventini28.01 21:58:59 CSI Budapest
28.01 22:56:54 ilze28.01 22:37:24 Bonny 54428.01 21:58:55 Villingendorf
28.01 22:56:39 Feuersinger, Anne28.01 22:37:11 Ferocidad28.01 21:58:45 Reitturnier Neubeuern
28.01 22:56:33 Rosenm28.01 22:36:37 come on calle28.01 21:58:19 Horst- Horstmühle
28.01 22:56:25 Hansohm, Gesche28.01 22:36:32 Acanthya28.01 21:58:14 Flensburg
28.01 22:56:29 Racheal SMITH (ITA)28.01 22:36:11 Sophisticated28.01 21:57:48 Oerlinghausen-Währentrup
28.01 22:56:23 Masoud Daniali (IRI)28.01 22:35:29 Serre Chevalier28.01 21:57:45 Reutlingen -
28.01 22:56:17 Pfeiffer, Nadine28.01 22:35:16 Watermills gold28.01 21:57:41 Hamburg Bergstedt
28.01 22:56:12 Merkle28.01 22:34:55 shari 10528.01 21:56:54 Stadtmeisterschaft V
28.01 22:56:07 Anzenh28.01 22:34:45 Nicolette 1628.01 21:54:53 Wendelstein 2011
28.01 22:56:04 Westermann, Finja28.01 22:34:41 Dauer Power J28.01 21:52:36 berufsrchampionat norderstedteiter
28.01 22:55:56 Rathing, Ilka28.01 22:33:56 Velix L28.01 21:51:56 wollmar
28.01 22:55:56 Bergsma,28.01 22:33:03 Romanov Pervi28.01 21:51:49 csi-j-a bonheiden
28.01 22:55:44 farnham,28.01 22:32:57 Carreras H28.01 21:50:59 Reitturnier Willich-
28.01 22:55:37 Schophoven,28.01 22:32:21 lennox 17628.01 21:50:56 ERZHAUSEN
28.01 22:55:27 czanderle, birgit28.01 22:32:13 Sterling Silver28.01 21:50:20 Ruf Bad
28.01 22:55:24 Doullon,28.01 22:31:40 royal dance R28.01 21:50:13 herbstturnier waldhof
28.01 22:55:16 Wolf, Ayline28.01 22:31:37 hotspot 228.01 21:50:08 Geilenkirchen -
28.01 22:55:13 dischinger,kathrin28.01 22:31:08 Cincinati28.01 21:50:05 Turnier Esslingen
28.01 22:54:59 Gerstner, Lisa-Maria28.01 22:30:51 Normandie28.01 21:49:13 barbaste
28.01 22:54:58 Rietz28.01 22:30:34 Finta28.01 21:48:55 Reittunier Emmerich
28.01 22:54:56 buwitt, christel28.01 22:29:09 Coralecha28.01 21:48:30 Gütersloh-Spexard
28.01 22:54:55 eisoldt, katharina28.01 22:28:53 Dady Cool 3228.01 21:46:13 Köngen-Erlenhof
28.01 22:54:42 Betge andrea28.01 22:28:35 Con-Coeur28.01 21:43:49 Oberpibing
28.01 22:54:31 Sonnenberg, Larissa28.01 22:27:48 Mia Bella 228.01 21:42:13 Niedersachsen Eiche
28.01 22:54:27 Antoszewsky,28.01 22:27:30 Luke 9228.01 21:39:59 springe reitturnier
28.01 22:54:23 Weingarten,28.01 22:27:27 Crocodile Rock 328.01 21:38:23 Kandern
28.01 22:54:17 Diederik28.01 22:26:54 Ronja 133028.01 21:36:46 Ennepetal-Meininghausen
28.01 22:54:14 Derksen, Iris28.01 22:26:06 circe28.01 21:34:42 turnier rheinzabern
28.01 22:54:11 ihr seid arschl28.01 22:25:19 barbie28.01 21:33:40 destel 30
28.01 22:54:05 Bobke, Clemens28.01 22:24:20 Joy 34828.01 21:33:39 hoyerswerda
28.01 22:54:01 Schiffgen,28.01 22:24:09 Look at me 3728.01 21:31:51 Braubach /
28.01 22:53:58 ublac28.01 22:24:02 Well Done 4228.01 21:26:48 weltmeisterschaft d
28.01 22:53:50 Stuckenborg,28.01 22:23:44 Poldy 828.01 21:25:51 grabsleben
28.01 22:53:42 Tonnaer,28.01 22:21:40 Ruby 2728.01 21:25:06 Saumur 2012
28.01 22:53:41 beate schulte h28.01 22:21:37 Helena 20128.01 21:24:49 Annika WittigImroth
28.01 22:53:40 Bree Nathalie28.01 22:21:31 Feininger 828.01 21:23:55 Bonn -
28.01 22:53:32 Laurie Anne DELANNOY DARNAUD28.01 22:21:30 Landgräfin 3728.01 21:23:45 Viernau
28.01 22:53:27 rieke, patricia28.01 22:21:07 Silvermountain s Milky Way28.01 21:23:22 RV Bassum
28.01 22:53:19 Kuhlencord28.01 22:20:51 Renaissance 6228.01 21:18:14 Herzebrock-Rheda
28.01 22:53:14 Flotk28.01 22:19:47 Emilio 9428.01 21:18:01 sonnwendderby burglengenfeld-dirnau
28.01 22:53:09 Cornelia J28.01 22:18:46 Marlo28.01 21:17:51 WIESBADEN -
28.01 22:53:02 Straub Silke28.01 22:17:59 casandro 2028.01 21:17:25 Gerolfingen/Mfr.
28.01 22:52:57 giodo with28.01 22:17:47 Sir Rupert 328.01 21:17:20 Karlstadt-Hesslar/Ufr
28.01 22:52:51 csaba28.01 22:17:25 Chacciana28.01 21:16:42 Katharina Adler
28.01 22:52:49 uwe aldinger28.01 22:17:19 Liquid Asset28.01 21:16:03 rv lilienthal
28.01 22:52:37 Kiebert, Alina28.01 22:17:18 Poquito 328.01 21:15:38 aachen gut
28.01 22:52:35 Tahnoon28.01 22:16:58 Feo-Fakhan28.01 21:14:42 Klarenhof
28.01 22:52:25 Müller,Frank28.01 22:16:40 Emil de Luxe28.01 21:14:35 Much Scheidt
28.01 22:52:13 pilla,28.01 22:16:22 Limor L28.01 21:14:14 Mücke- Atzenhain
28.01 22:52:04 Romantic Greyballett28.01 22:15:59 Bekas Sundancer28.01 21:13:54 büchelkühn
28.01 22:52:01 Holzner, Georg sen.28.01 22:15:23 wallender28.01 21:13:50 niederwerbig
28.01 22:51:51 dahmen franz josef28.01 22:14:51 Silverado28.01 21:12:57 Eichenbühl
28.01 22:51:45 Wltz, Britta28.01 22:14:53 Sunny-Jumper28.01 21:11:11 Bilfingen K
28.01 22:51:37 Khalid HAMAD AL AATIYEH28.01 22:13:32 cavillano28.01 21:09:44 St. Jürgen
28.01 22:51:35 Kroesen katharina28.01 22:13:15 Garry28.01 21:08:36 Wellington FL(USA)
28.01 22:51:19 Schulte Dr28.01 22:13:13 Donington Park28.01 21:05:22 Burgstädt Turnier
28.01 22:51:17 Mahmood Hashim R. SALEH28.01 22:13:01 Maverick 5328.01 21:04:03 idstein
28.01 22:51:15 soya merle28.01 22:12:58 ricon 328.01 21:03:17 heppenheim
28.01 22:51:13 Huhsl28.01 22:12:48 Coolheart 228.01 21:03:00 Oberm
28.01 22:50:59 JABER AL MARRI (QAT)28.01 22:12:42 Danny Boy 1028.01 21:02:20 Pfingsturnier ganderkesee
28.01 22:50:56 Kallayova,28.01 22:11:54 cashmere 2428.01 21:02:09 Mainz-Gonsenheim
28.01 22:50:54 Rehermann, Antje28.01 22:11:47 abalon28.01 21:02:07 Pennigbüttel
28.01 22:50:51 Maintz ,Mario28.01 22:11:24 Landliebe28.01 21:01:50 Turnier K
28.01 22:50:48 tomas kleis28.01 22:11:22 caynoa28.01 21:01:00 Bockleben
28.01 22:50:44 Irle,Vanessa28.01 22:10:39 Feliciano 1328.01 21:00:43 Reittunier Otze
28.01 22:50:42 kerstin kristen28.01 22:10:17 Good Lady 928.01 21:00:32 Schwerte-Ergste
28.01 22:50:27 Biega daniela28.01 22:08:51 houdini 1528.01 20:58:45 Sieversen -
28.01 22:50:26 JAMES NICHOLAS YOUNG (ZIM)28.01 22:08:36 zerze28.01 20:58:14 Emlichheim
28.01 22:50:16 reichert,28.01 22:07:54 clyde28.01 20:58:11 nebanice
28.01 22:50:11 Julie INEICHEN (SUI)28.01 22:07:25 Gerda 5428.01 20:57:01 Reitverein Wadersloh
28.01 22:50:07 Niedan, Michaela28.01 22:07:23 Lindgold vh28.01 20:56:55 rinkerode
28.01 22:50:06 hansen-hotopp,28.01 22:07:08 Top Son28.01 20:55:25 heßlar
28.01 22:50:01 Sponheimer28.01 22:06:59 What Nu28.01 20:55:20 Ramcke S
28.01 22:49:54 Dengel,28.01 22:06:44 Julia B28.01 20:54:58 21-22.2012 herzberg
28.01 22:49:51 Philipp l28.01 22:06:07 montoblanc28.01 20:54:41 Dillingen
28.01 22:49:50 Siemer, Marit28.01 22:06:05 Cleiner Freund28.01 20:54:11 Turnier Derenburg
28.01 22:49:49 Weinläder, Sonja28.01 22:05:50 Jaleo 428.01 20:52:34 amtzell
28.01 22:49:44 Kirkby,28.01 22:05:34 rubin-royal 228.01 20:52:05 Reiningturnier in
28.01 22:49:39 alexandra zimmer28.01 22:05:16 Queensland 1428.01 20:50:46 L.
28.01 22:49:38 Jennifer BRINKMAN-AYERS (USA)28.01 22:04:48 Ria28.01 20:50:32 Dachtmissen
28.01 22:49:07 Erdmann, Brunhilde28.01 22:04:14 Copado 528.01 20:50:27 Anakenhof
28.01 22:49:00 Chalermcharn YOTVIRIYAPANIT (THA)28.01 22:03:20 perichole28.01 20:50:07 Bergkamen Overberge
28.01 22:48:59 jentges patrizia28.01 22:02:53 Devon28.01 20:49:27 gänsefurth 27
28.01 22:48:53 Weidtmann, Maximiliane28.01 22:02:05 Noorddijk28.01 20:49:23 Remchingen-Wilferdingen
28.01 22:48:41 Hirschberg, Annika-Luisa28.01 22:01:57 Frizzantino 2228.01 20:49:15 Bersenbrück
28.01 22:48:22 henriette Biskupek28.01 22:01:42 di chiquela H28.01 20:49:14 Waldbröl- Happach
28.01 22:47:58 Viereck, Lars28.01 22:01:22 Freeman 5928.01 20:47:14 Eisingen/Ufr.
28.01 22:47:39 Schilling, Lara28.01 22:01:19 Tetti-Bara28.01 20:45:19 Hessisch Lichtenau
28.01 22:47:42 Christian Spohn28.01 22:01:11 dover28.01 20:45:09 bensdorf/herrenh
28.01 22:47:14 Vedredi, Peter28.01 22:01:08 Claudia Brandt28.01 20:42:42 walldorf mächtigkeitsspringen
28.01 22:47:09 beer sabrina28.01 22:00:51 Lapadeado28.01 20:41:51 PSG Hebbinghausen
28.01 22:46:56 Bechtold,Reiner28.01 22:00:36 Constantin 8128.01 20:41:00 nordbögge
28.01 22:46:43 Hendrik s28.01 22:00:24 Watch me 1428.01 20:40:00 wolfersdorf
28.01 22:46:19 Mareike Schuart28.01 22:00:17 guapa28.01 20:39:53 ahrensfelde 24.07
28.01 22:46:15 Lamers, zarina28.01 21:59:35 Kotillon28.01 20:39:20 Klattgau b
28.01 22:45:58 MOHAMMED ISMAIL ALI AL28.01 21:59:19 Winston van het Ruitershof28.01 20:39:15 Wagenfeld 29.04.2011
28.01 22:45:53 Dolle, Maleen28.01 21:58:26 Neiki28.01 20:37:35 Blomberg
28.01 22:45:51 Josefa Schumann28.01 21:58:16 Quaid28.01 20:37:21 St. Augustin
28.01 22:45:46 Boog, Viktoria28.01 21:57:58 Quampus Gregor28.01 20:35:56 turnier hildesheim
28.01 22:45:43 Jessica reinke28.01 21:57:31 Lou 2328.01 20:35:53 Reiterball Basch
28.01 22:45:40 Simon mewis28.01 21:56:13 inselfee28.01 20:35:00 Hünstetten-Wallrabenstein
28.01 22:45:33 Lanz, Karin28.01 21:55:41 Eichendorff 928.01 20:34:31 turnierergebnis osterbrock
28.01 22:45:30 wittig, laura28.01 21:54:59 Show Dancer 728.01 20:33:17 5
28.01 22:45:27 Schröttinger, Vanessa28.01 21:54:09 prinz samuell28.01 20:33:07 turnier heimkirchen
28.01 22:45:18 Ingmar Henke28.01 21:53:25 Piona28.01 20:32:23 hallenturnier 1996
28.01 22:45:12 germeroth, maria28.01 21:52:56 Dublin-M28.01 20:32:05 Kreuth/Opf
28.01 22:45:09 marita geisler28.01 21:52:21 Rappenbergs Little Lord28.01 20:31:26 Bösdorf
28.01 22:45:01 verena riesinger28.01 21:52:03 Alexis 21528.01 20:30:51 Heideb
28.01 22:44:49 Schiessl, Valentina28.01 21:51:54 Landk28.01 20:29:24 Spiesen- lversberg
28.01 22:44:44 Kochmann, Denise28.01 21:51:43 Lux 11428.01 20:29:10 Hoya,
28.01 22:44:41 James B HAMILTON (GBR)28.01 21:51:17 laetare28.01 20:28:20 Reitturnier burgdorf
28.01 22:44:27 selina künster28.01 21:50:15 Dr. House 428.01 20:26:33 Walldorf
28.01 22:44:25 bisswenger, carlo28.01 21:49:59 Cira 3828.01 20:25:47 Schlitz
28.01 22:44:19 birte kristin reinhardt28.01 21:48:50 Sidney 17528.01 20:24:23 spockh
28.01 22:44:15 Schreibmeier, Patrick28.01 21:48:19 Hyperion K28.01 20:23:51 Andernach
28.01 22:44:08 Leveringhaus, Sabrina28.01 21:47:53 revus28.01 20:22:51 Eschollbrücken /
28.01 22:44:08 Brand, Franziska28.01 21:47:35 Gipsy-Girl 1428.01 20:22:41 reinfeld hof
28.01 22:44:02 Rocholl, Charlotte28.01 21:47:09 Richelle Plum28.01 20:21:02 Halchter
28.01 22:43:57 Natascha speicher28.01 21:46:13 Rosebery28.01 20:20:58 Reitverein Klint
28.01 22:43:51 ABDULLAH IBRAHIM ALNGHAITHER (28.01 21:45:50 Hatari 628.01 20:20:02 heufelden
28.01 22:43:47 Jebens, Anika28.01 21:45:49 Varnita L28.01 20:19:57 olympia reitanlage
28.01 22:43:36 Suing, Arnd28.01 21:45:48 La Vit28.01 20:14:39 turnier wittenberg
28.01 22:43:09 Kerres, Marie28.01 21:45:23 kala28.01 20:13:41 watteneheim
28.01 22:43:08 Anna Taavola28.01 21:45:17 Lafayette 16528.01 20:12:54 02.10. grafing
28.01 22:43:06 Reineking, Wencke28.01 21:44:40 nebacco28.01 20:12:47 Pr. Oldendorf-Engershausen
28.01 22:43:02 Aundrup, Alexander28.01 21:44:21 Champus Lady28.01 20:12:26 dressurtunier r
28.01 22:42:51 Hülsmann, Katrin28.01 21:44:17 Classic Life28.01 20:09:56 Pfingstturnier Str
28.01 22:42:49 Michelle MCNULTY (IRL)28.01 21:43:04 daidalus28.01 20:09:44 Steyerberg
28.01 22:42:46 Kemmer, Aline28.01 21:41:57 Fantasie 23628.01 20:08:03 raisdof
28.01 22:41:58 Sattar Khan Yunus KHAN28.01 21:41:50 Shaman 1228.01 20:05:47 Reiterball Baschütz
28.01 22:41:57 Gentemann, Wilfried28.01 21:41:27 Happening 528.01 20:05:21 Firnheim
28.01 22:41:30 Lodwig, Sarah28.01 21:41:25 Papillon 11828.01 20:04:59 springturnier lrfv
28.01 22:41:27 tielke yvonne28.01 21:40:55 Bischoffs Wai la wai28.01 20:04:04 Weil am
28.01 22:41:19 Meyerl, Marco28.01 21:40:31 acortina28.01 19:59:39 RV Hüttenbusch
28.01 22:41:14 Vollet-Bergerforth, Philipp28.01 21:40:23 Fiorilla28.01 19:59:15 Reit-und Pony-Club
28.01 22:41:13 Niederberghaus, Anke28.01 21:40:15 derbys dream28.01 19:54:06 Reitverein Ahlhorn
28.01 22:41:10 Busley, Johanna28.01 21:39:34 Elvita 1028.01 19:52:12 Sabrina schöniger
28.01 22:40:58 Hanna WAIDMANN (GER)28.01 21:39:34 Carlchen 3328.01 19:51:11 Du
28.01 22:40:49 MARTIN CALIMARIS (URU)28.01 21:39:19 Graf Werther28.01 19:50:40 wittenburg
28.01 22:40:47 Heinemann, Janina28.01 21:39:11 Peaches 1428.01 19:50:28 Alsfeld-Eifa (Kastanienhof)
28.01 22:40:33 Erlerden, Kiara28.01 21:38:41 cassiopaya m28.01 19:49:46 Herrenber-Gülstein
28.01 22:40:25 busch-petersen, antje28.01 21:38:37 Nowhere Radio28.01 19:49:01 Krfv sommerturnier
28.01 22:40:23 Fricke, Katja28.01 21:38:23 lunastar28.01 19:48:57 dm gespannfahrer
28.01 22:40:15 Sabrina Guhra28.01 21:37:15 Don Filou D28.01 19:47:55 körung redefin
28.01 22:40:04 Braunst, Franka28.01 21:37:03 Shanaga28.01 19:47:30 quatitz
28.01 22:39:58 Hergesell Saskia28.01 21:36:58 rosarios welthit28.01 19:47:04 dirnau-burglengenfeld
28.01 22:39:58 Laschat, Inga28.01 21:36:52 Follow Me 2528.01 19:46:15 hof klatte
28.01 22:39:51 Torkelli, Ryan28.01 21:36:32 Romanero28.01 19:46:01 Kempersh
28.01 22:39:42 Renzenbrink, Maren28.01 21:36:16 La Traviata 3528.01 19:45:31 ostenfelde beelen
28.01 22:39:35 Valeska, Auhagen28.01 21:35:58 Don-Carlos 428.01 19:45:28 Aschaffenburg/Ufr
28.01 22:39:33 Frank Trepisur28.01 21:35:37 Wakira 1028.01 19:45:06 Reitturnier Rulle
28.01 22:39:25 Claudio Francisco CASTILLO NU28.01 21:35:40 Pan Tau 10628.01 19:44:46 Menden
28.01 22:38:58 Guhl, Neele-Mathea28.01 21:35:23 Chidalgo28.01 19:44:43 0lfen Vinnum
28.01 22:38:47 Rosanna FRANKISH (NZL)28.01 21:34:12 Oberstaigs Bounty28.01 19:44:26 VIERNHEIM/errors.php
28.01 22:38:41 Maren Kopsch28.01 21:33:53 norman 8428.01 19:44:24 Geseke-Höltergrund
28.01 22:38:41 Dr. Hartmann, Anna-Elisabeth28.01 21:33:24 calotta be cool28.01 19:44:18 Hittbergen
28.01 22:38:38 Briechle, Kathrin28.01 21:33:03 amaretto 21728.01 19:44:13 BAD
28.01 22:38:28 Ranneberg, Wolfgang28.01 21:32:47 Cycilien28.01 19:44:09 Trierweiler-Sirzenicher Hof
28.01 22:38:09 Dudtenh28.01 21:32:14 Amicelli 12728.01 19:44:01 bönen hacheney
28.01 22:38:10 Gimmy, Monika28.01 21:31:58 la calando28.01 19:41:21 fohlenschau in
28.01 22:38:09 Niehoff, Anja28.01 21:31:07 Duntroon28.01 19:39:29 Eutiner Reitertage
28.01 22:38:04 Mewis, Lynn Anik28.01 21:31:04 High Noon 4828.01 19:37:02 Reittunier Eystrup
28.01 22:38:01 christiane borchert28.01 21:30:15 diddy dakkar28.01 19:36:41 esslingen
28.01 22:37:59 Nieß, Simon28.01 21:28:24 Waikiki van het Moleneind28.01 19:35:34 Lübeck-Wulfsdorf
28.01 22:37:47 Kebernik, Alisa28.01 21:28:10 Grandero28.01 19:35:03 Achselschwang/Obb
28.01 22:37:42 Leierer, Natascha28.01 21:27:57 Worldwide 1228.01 19:34:43 hechingen
28.01 22:37:39 Koch, Marina Christel28.01 21:26:07 Labouche28.01 19:34:06 hüffenhardt 2011
28.01 22:37:33 Biester, Alia28.01 21:25:53 Ally Macbeal28.01 19:33:51 Breidtersteegsmühle
28.01 22:36:58 Jarczak,Sandra28.01 21:25:40 Quincent28.01 19:33:37 reitturnier sonnenhof
28.01 22:36:43 fahrturnier wohlesbostel28.01 21:25:14 Sting28.01 19:30:49 Wachtberg-oberschönbach
28.01 22:36:13 Irmscher, Sophia28.01 21:25:16 Papillon 9228.01 19:28:39 cuxhagen-dörnhagen
28.01 22:36:07 Gina CAPELLMANN - LÜTKEMEIER28.01 21:23:36 Cashkurs UH28.01 19:25:21 wiener
28.01 22:35:21 Suzanne POSNETT (IRL)28.01 21:22:51 Grace G 228.01 19:24:27 cappeln o7
28.01 22:35:13 Alfonso Antonio CARRILLO CAMPU28.01 21:22:41 Ballerina von Buchmatt28.01 19:23:57 Clenze
28.01 22:35:11 marlen marie weber28.01 21:22:36 Luigello28.01 19:22:16 bottrop kichhellen
28.01 22:34:57 anna sophie fiebelkorn28.01 21:22:12 Tante Heinz28.01 19:20:06 schwanewede
28.01 22:34:56 Christina GEISSLER (AUT)28.01 21:20:25 Glasmost28.01 19:18:15 Starum(NOR) Nordic
28.01 22:34:55 michelle kranz28.01 21:20:22 casparo28.01 19:18:14 dxixkbrffreka
28.01 22:34:25 Ashleigh CONNORS (IRL)28.01 21:19:29 corett28.01 19:17:42 Uder, Reitanlage
28.01 22:34:15 P28.01 21:19:16 lody 228.01 19:14:10 Ellingen
28.01 22:34:11 Saciri-Habermann, Brenda28.01 21:18:49 singolds28.01 19:13:59 17.7.11
28.01 22:34:09 Jörg PEPER (GER)28.01 21:18:36 Clarkson28.01 19:13:44 leipzig
28.01 22:33:57 Spirtz, Dominik28.01 21:18:24 Clarence 1528.01 19:10:23 gut
28.01 22:33:56 Marco Bührig28.01 21:17:14 solitaire28.01 19:09:31 Calbe Saale
28.01 22:33:55 Marco Buehrig28.01 21:17:05 Browny28.01 19:07:42 Trebur/Gut Berlenhof
28.01 22:33:43 Timmer, Leah28.01 21:16:42 Valco-Ulf v.H.28.01 19:07:15 kambergs
28.01 22:33:37 harald missel28.01 21:16:28 gino 34828.01 19:07:11 Borgloh
28.01 22:33:31 Graupner, Nicole28.01 21:16:10 Search me28.01 19:07:06 23.9. Stadl-Paura
28.01 22:33:21 Ali Hussain Al Hammadi28.01 21:16:00 Big-Boy28.01 19:06:41 reitturnier nesselr
28.01 22:33:18 sichting, doris28.01 21:15:55 Nicole Rink28.01 19:03:39 Krefeld -
28.01 22:33:15 Schwerdt, Joachim28.01 21:15:48 chocolate chip cookie28.01 19:03:16 Ausschreibung Bad
28.01 22:32:25 manuel friedrichs28.01 21:15:34 Lortino28.01 19:00:28 in Zürich
28.01 22:32:19 werries28.01 21:15:30 Enrico 329 DE44141142420528.01 19:00:01 stedten
28.01 22:32:09 laetitia Degelmann28.01 21:15:26 balou 65528.01 18:57:03 kirchstockach/Obb
28.01 22:31:58 Schoeps, Sonja28.01 21:15:08 VISCOUNT 1528.01 18:56:55 breiterstegsmühle
28.01 22:31:56 Ahlers, Sarah28.01 21:15:03 Eileen D28.01 18:55:13 Geisenhausen/Ndb
28.01 22:31:37 Tropschug, Yasmine28.01 21:14:52 lapinjärvi laurino28.01 18:55:04 Beesenstedt
28.01 22:31:27 Casper, Hannah28.01 21:14:30 Quistador S28.01 18:54:57 Pausin
28.01 22:31:08 Lara keller28.01 21:14:26 Cascaron28.01 18:54:20 Uetz
28.01 22:31:01 Mohamad Ibrahim AHMAD (MAS)28.01 21:14:02 Lancelot 13228.01 18:53:28 Draisdorf/admin.php
28.01 22:30:13 Vorkauf, Silke28.01 21:13:29 Voltaire 8828.01 18:51:30 Stauda
28.01 22:30:08 Gutermann, Heike28.01 21:13:21 donnadoria28.01 18:50:39 Dierdorf
28.01 22:29:43 Laue, Samenta28.01 21:12:49 Fleur Bube28.01 18:50:16 öhringen cappeln
28.01 22:28:36 Ehmann, Jutta28.01 21:11:59 Liza Minelli 1628.01 18:47:21 Tunier Bierstadt
28.01 22:28:24 Hanna John28.01 21:11:21 ampere28.01 18:46:18 hamm rhynern
28.01 22:28:24 Bergelt, Lars28.01 21:11:06 Olympic Feldgold28.01 18:42:11 epfendorf bei
28.01 22:28:14 Molinnus,28.01 21:11:05 walzerk28.01 18:40:41 ibbenb
28.01 22:28:11 marie christin hess28.01 21:10:54 Dablino les Cadeur28.01 18:40:30 fohlenchampionnat
28.01 22:28:10 rohwer chantal28.01 21:10:43 Lacord 828.01 18:37:56 Startnummern Tunier
28.01 22:27:59 Lars Bergelt28.01 21:10:40 Laterseas Harvest Moon28.01 18:36:52 behrendorf 2009
28.01 22:27:51 Janzen, rita28.01 21:10:18 Feldrose 928.01 18:33:48 turnier destedt
28.01 22:27:50 Sascha von, Royen28.01 21:10:14 Fantastico 4328.01 18:32:26 klint 7,9,11.10
28.01 22:27:39 Reuffurth, Natalina28.01 21:09:57 Black Rock H28.01 18:32:22 Meppen-Gestüt Höftehof
28.01 22:27:35 Möwe-Jarren, Marlis28.01 21:09:53 rolex sp28.01 18:32:05 Dornermühle
28.01 22:25:58 Diana Hendle28.01 21:09:51 Enzo H28.01 18:30:35 Quellendorfreitturnier-news.de
28.01 22:25:48 Bettina HÖRICH (GER)28.01 21:09:34 mühlenteich clear cool cash28.01 18:30:23 turnier reitsportzentrum
28.01 22:25:30 Mathieu CHOMBART (FRA)28.01 21:09:29 Great little Girl28.01 18:30:16 Kreismeisterschaft Erkrath
28.01 22:24:55 RAQUEL BUSQUET RECASENS (ESP)28.01 21:08:28 Quadroneur 228.01 18:28:17 Schulte-Schedding
28.01 22:24:37 Papalla, Nora28.01 21:04:23 Dondiamo28.01 18:28:00 Reitturnier Ansbach
28.01 22:24:21 Plinke, Michelle28.01 21:04:23 Psw Princess Naomi28.01 18:27:24 Hof Bettenrode
28.01 22:22:40 Schmiederer, Moritz28.01 21:03:32 Ricaro 528.01 18:26:13 Herbstturnier Rinteln
28.01 22:22:33 Klauke, Karen28.01 21:02:37 Cornwall28.01 18:25:19 Sulmingen
28.01 22:22:27 Czerwinski, Elke28.01 21:02:35 imago dei28.01 18:23:54 Stilspringen e
28.01 22:22:20 sandra k28.01 21:01:18 Lupino 1128.01 18:23:42 höhr grenzhausen
28.01 22:21:58 Strangarits, Ann-Kathrin28.01 21:01:07 Lasse 7328.01 18:23:34 Reitturnier Hamm-Caldenhof
28.01 22:21:33 Diekhöfer, Ivonne28.01 21:01:02 Claire 8928.01 18:19:38 Isterberg dressurturnier
28.01 22:21:30 Amrei Zielonka28.01 20:59:15 Ashanty 2728.01 18:19:04 Reitertag Beckum
28.01 22:21:10 neff,francesca28.01 20:58:57 sunrise avenue28.01 18:18:52 Grünberg vom
28.01 22:20:47 Tanja Honerkamp28.01 20:58:14 Agate Power28.01 18:18:36 Ponyclub Krefeld
28.01 22:20:27 Wienecke,Saphira28.01 20:57:54 Sir Connery28.01 18:17:35 barchel
28.01 22:20:25 Anders, Julia Maximiliane28.01 20:57:48 Airmax 328.01 18:17:23 Sinzheim
28.01 22:20:09 schmidt-thieme, flora28.01 20:57:43 De Rivo28.01 18:15:47 hamburg wentorf
28.01 22:19:17 Weiss, Leslie-Ann28.01 20:57:24 Obsession 1028.01 18:15:34 Dinslaken hiesfeld
28.01 22:19:06 Stephan, Christin28.01 20:57:21 Leo S.28.01 18:14:59 Kreiensen-
28.01 22:19:04 Marina LAWSON - SMITH28.01 20:57:15 Seraphina28.01 18:14:33 Wachtberg -
28.01 22:19:01 Wahlmann, Vanessa28.01 20:56:50 Patricia28.01 18:14:20 fahrtunier hörup
28.01 22:18:55 klopenberger,28.01 20:56:40 Santana 48428.01 18:14:04 hamminkeln -t
28.01 22:18:44 meike montabaur28.01 20:56:32 Bond 728.01 18:13:10 rastede 2014
28.01 22:18:32 Rötges, Rebecca28.01 20:56:11 DE 32121013459628.01 18:13:04 Ganderkesee
28.01 22:18:22 Ben Nsib, Emira28.01 20:55:58 Con Solor van de28.01 18:11:55 Hess. Lichtenau
28.01 22:18:13 Stephanie WYRWOLL (GER)28.01 20:55:56 Grisby 228.01 18:10:58 Alverskirchen Everswinkel
28.01 22:18:03 Ildiko Leitherer28.01 20:55:52 Prinz Heinz28.01 18:10:40 Luzern
28.01 22:17:55 Käseberg, Sonja28.01 20:55:34 Kasimir 10828.01 18:10:14 reitturnier leonberg
28.01 22:17:33 Schmau28.01 20:55:01 Del Duero 228.01 18:09:50 Hamburg-Neuenfelde
28.01 22:17:38 Joyce Szozda28.01 20:54:55 farhana28.01 18:09:47 Jugendvergleichswettkampf
28.01 22:17:27 louisa wiese28.01 20:54:49 Flanigan28.01 18:09:35 Dürrweitzschen
28.01 22:17:15 Luitha Magaretha PIETERS (RSA28.01 20:54:36 Lakritze28.01 18:09:23 kosel 17.04.11
28.01 22:17:02 Sonia BULUSCHEK (GER)28.01 20:54:22 obelix 4028.01 18:09:14 Reitturnier m
28.01 22:16:46 Jose Torres Bernaldez (ESP)28.01 20:54:15 Caine 928.01 18:08:04 lostau
28.01 22:16:04 Bock, Kirsten28.01 20:53:46 Sir Sontender28.01 18:07:55 Blomberg- Eschenbruch
28.01 22:15:55 Jean Jacques DONZELLI (FRA)28.01 20:53:43 Sindbad 10928.01 18:07:34 flying angel
28.01 22:15:44 Julia Parfenowa28.01 20:53:35 Coro-Piano K28.01 18:06:21 Süderbrarup-Güderott
28.01 22:15:37 Steidinger, Claus28.01 20:53:27 Sunny Boy 13428.01 18:06:08 TRAISA
28.01 22:15:32 Sterling, Marie Sophie28.01 20:52:31 Timmesfeld, Nina28.01 18:05:44 Bergisch Gladbach-Paffrath
28.01 22:15:20 rv-langwedel/etelsen28.01 20:52:24 Cora 59928.01 18:05:29 Aulendorf
28.01 22:15:11 Angermüller , Martin28.01 20:51:18 sillas de la vie28.01 18:03:55 Trassenheide-Friesenhof
28.01 22:14:47 Meyer, Sabrina28.01 20:51:07 Candaletta 228.01 18:02:33 schorfheidegest
28.01 22:14:45 Grütt, Sarina28.01 20:51:01 Sushaunna28.01 18:02:14 USINGEN
28.01 22:14:24 Yvette TRUESDALE (IRL)28.01 20:50:58 dream of trakehnen28.01 18:01:10 Wesel-Diersfordt
28.01 22:14:12 Landsiedel, Lea28.01 20:50:50 HOLSTEINS MANITU-HAPPYNESS28.01 17:58:08 lord pontifex
28.01 22:13:57 dietmar hax28.01 20:50:16 Endever 228.01 17:57:52 Nuhweiler, Lindenhof
28.01 22:13:49 Marx, Allison28.01 20:49:58 Rose of Da Vinci28.01 17:56:03 Fohlenbrennen nrw
28.01 22:13:40 Hössl, Julia28.01 20:49:46 Therona- Contendra-H28.01 17:53:33 live turnier
28.01 22:13:38 Tannhauer, Meike28.01 20:49:42 Sandros528.01 17:53:03 Viersen- Helenabrunn
28.01 22:13:21 Lisa Dilan durna28.01 20:49:37 celtic jewel28.01 17:49:55 horse show
28.01 22:12:59 marie simon28.01 20:49:07 Ceres 2828.01 17:49:02 Vellmar 2010
28.01 22:12:55 Schaubruch, Bianca28.01 20:49:01 Amaryllis Sensation28.01 17:47:20 RFV Gestüt
28.01 22:12:50 Schurig, Alexandra28.01 20:48:52 conterna28.01 17:44:31 Grasberg
28.01 22:12:23 Carina Walz28.01 20:48:22 hot linea28.01 17:42:48 ansgarmillarg
28.01 22:12:08 Marcelo GONCLAVES DIAS (BRA)28.01 20:47:57 Whalyshas Dream F28.01 17:38:13 Rv bergisch
28.01 22:12:03 Töwe, Vanessa28.01 20:46:23 Loni 15228.01 17:37:42 Reichelsheim/Wetterau
28.01 22:11:56 carine kleine-jänsch28.01 20:46:20 Konieczny, Theresa28.01 17:35:15 Genshagen
28.01 22:11:51 Brockhöft, Maike28.01 20:45:23 Filius Reguli M28.01 17:35:12 reitturnier Hülsen
28.01 22:11:51 Maurer-Engels, Christine28.01 20:45:02 Aron W28.01 17:34:38 Schwenningen
28.01 22:11:02 Markus borggreve28.01 20:44:42 Rovinya28.01 17:34:08 Straubing rennbahn
28.01 22:10:59 Nowak, Nadine28.01 20:42:51 Duce 628.01 17:34:05 Reitstall Luisenhof
28.01 22:10:49 Maurer, Isabel28.01 20:42:37 Elea28.01 17:30:21 Walsrode
28.01 22:10:32 Achtermann-Ljubimow, Jekaterina28.01 20:42:02 mandy tanski28.01 17:29:55 warendorf katzheide
28.01 22:09:57 Schmidt,Antje28.01 20:41:49 Hargraeves28.01 17:28:03 breitenburg
28.01 22:09:55 Marques, Jeannine28.01 20:41:34 Debussy de Paris28.01 17:27:37 radegast reitturnier
28.01 22:09:47 Majed Ali AL KAYOUMI28.01 20:41:15 Diamonds Daylight28.01 17:27:29 lintorf ratingen
28.01 22:09:35 Symalla, Michael28.01 20:40:58 Dolcetto 1328.01 17:27:08 em kreuth
28.01 22:09:32 Sara ALGOTSSON OSTHOLT (SWE)28.01 20:40:45 Contendro I28.01 17:25:15 zierow/index.php
28.01 22:09:09 Lizzie DOOLITTLE (GBR)28.01 20:40:40 Sir Cashmere28.01 17:24:49 Diepersdorf/Mfr
28.01 22:08:52 Winkler, Anna28.01 20:40:38 Sir Friedrich 228.01 17:24:46 Waidhof-Inzlingen
28.01 22:08:50 Ohmen, Natascha28.01 20:39:14 Jolly Jumper 7428.01 17:24:22 Weilheim-Lichtenau/Obb.
28.01 22:08:47 Hopp, Josephine28.01 20:39:02 Butterflys Indian Summer28.01 17:23:13 Siegen-Eiserfeld
28.01 22:08:08 Prott, Martin28.01 20:38:14 charlott28.01 17:22:49 Ellwangen-R
28.01 22:08:06 tina werner28.01 20:37:43 werdandi28.01 17:22:32 Dachau Magdalenenhof
28.01 22:07:59 poenseler, karin28.01 20:37:12 Argelith Stakkato28.01 17:21:08 dortmund brechten
28.01 22:07:37 Anja off28.01 20:37:01 weber, maria28.01 17:20:52 zeiteinteilung neuried
28.01 22:07:02 Oliver Zipse28.01 20:36:55 Wuppi 528.01 17:19:52 Ha
28.01 22:06:47 Heidb28.01 20:36:49 Caius 428.01 17:14:45 salzwedel 2011
28.01 22:06:42 Flucke, Julia28.01 20:36:42 Dodi 828.01 17:14:35 daun
28.01 22:06:37 Schleker, Elke28.01 20:36:34 Leonie 828.01 17:14:04 Reitturnier Bernau-Ladeburg
28.01 22:06:20 Kerstin Lange28.01 20:35:14 callistro 228.01 17:13:57 Burgthann/Mimberg
28.01 22:06:11 Meckenheimer RC e.V28.01 20:34:51 Ray of Sunlight28.01 17:13:24 geilenkirchen
28.01 22:06:01 Reitmeier, Mandy28.01 20:33:36 QUINNLAY28.01 17:12:58 Köln-Oranjehof
28.01 22:05:53 Samantha BROWN (GBR)28.01 20:33:09 Gino Ginelli 7128.01 17:12:53 Chevenez
28.01 22:05:53 Söder Selina28.01 20:33:01 Ambassador 6428.01 17:12:52 Valluhn
28.01 22:05:48 leslie minklei28.01 20:32:52 Ruth 628.01 17:12:28 31.juli 2011
28.01 22:05:45 katrin kinne kraft28.01 20:32:43 Keep on smiling28.01 17:12:21 westf
28.01 22:05:36 Dutschmann,Sandra28.01 20:31:42 Pokerface 3328.01 17:12:05 reiturniere
28.01 22:05:30 Thomas SCHEPERS (GER)28.01 20:31:23 Rizzi Pizzi28.01 17:11:32 reittunier schwabach
28.01 22:05:27 Bialas,Beatrice28.01 20:31:17 Steendieks Pokerface28.01 17:11:11 Isendorf-Emsdetten
28.01 22:05:11 Fortwengel, Svenja28.01 20:31:08 Watch me28.01 17:10:48 heroldsberg
28.01 22:05:11 verena, bayer28.01 20:30:20 fleetwood R28.01 17:09:14 münchsmünster
28.01 22:04:58 Deuster, Anna28.01 20:29:45 avagon28.01 17:08:45 Trostberg-Wäschhausen/Obb
28.01 22:04:36 susanne najda28.01 20:29:47 Gucci 8628.01 17:05:52 Bochum Wattenscheidt